Location: Peebles
(55.6412°N, 3.1714°W)
Time: 14:47:36
(UTC+01:00)

ARIANE 5 R/B - Pass Details

Date: 06 July 2022
Orbit: 749 x 794 km, 98.7° (Epoch: 16 August)

Event Time Altitude Azimuth Distance (km) Brightness Sun altitude
Rises 03:33:35 0° 27° (NNE) 3,221 8.4 -6.5°
Reaches altitude 10° 03:36:55 10° 50° (NE) 2,297 6.4 -6.2°
Maximum altitude 03:39:48 15° 85° (E) 1,966 5.2 -6.0°
Drops below altitude 10° 03:42:41 10° 120° (ESE) 2,302 5.0 -5.8°
Sets 03:46:01 0° 143° (SE) 3,232 5.5 -5.5°
